This demonstration page uses our WeatherBlox Daily Observations layout. Learn more.

Left ArrowRight Arrow

Hourly Observations for April 16, 2015

Temp ( °F °C ) Dew Point ( °F °C ) Humidity (%) Winds ( mph kmh ) Pressure ( in mb ) Visibility ( mi km ) Precip ( " mm )
12:15 am 00:15 Cloudy 54 12 43 6 67 67 E 10 17 30.18 1022 7 11.26538 N/A
12:36 am 00:36 Cloudy 54 12 45 7 72 72 E 12 19 30.18 1022 10 16.0934 N/A
12:56 am 00:56 Cloudy 54 12 46 8 77 77 E 14 22 30.18 1022 10 16.0934 N/A
1:15 am 01:15 Cloudy 54 12 48 9 82 82 ESE 15 24 30.18 1022 10 16.0934 N/A
1:36 am 01:36 Partly Cloudy 54 12 48 9 82 82 ESE 14 22 30.18 1022 10 16.0934 N/A
1:56 am 01:56 Clear 54 12 46 8 77 77 ESE 10 17 30.15 1021 10 16.0934 N/A
2:15 am 02:15 Partly Cloudy 54 12 46 8 77 77 E 12 19 30.15 1021 10 16.0934 N/A
2:36 am 02:36 Clear 54 12 45 7 72 72 E 8 13 30.15 1021 10 16.0934 N/A
2:56 am 02:56 Partly Cloudy 54 12 43 6 67 67 E 8 13 30.15 1021 10 16.0934 N/A
3:15 am 03:15 Clear 54 12 41 5 63 63 E 9 15 30.12 1020 10 16.0934 N/A
3:36 am 03:36 Partly Cloudy 54 12 41 5 63 63 E 6 9 30.12 1020 10 16.0934 N/A
3:56 am 03:56 Cloudy 52 11 41 5 67 67 E 3 6 30.12 1020 7 11.26538 N/A
4:16 am 04:16 Mostly Cloudy 52 11 41 5 67 67 E 5 7 30.12 1020 10 16.0934 N/A
4:36 am 04:36 Mostly Cloudy 52 11 41 5 67 67 ESE 6 9 30.12 1020 10 16.0934 N/A
4:56 am 04:56 Mostly Cloudy 52 11 41 5 67 67 SE 6 9 30.12 1020 10 16.0934 N/A
5:16 am 05:16 Mostly Cloudy 54 12 41 5 63 63 SE 5 7 30.12 1020 10 16.0934 N/A
5:36 am 05:36 Mostly Cloudy 54 12 41 5 63 63 ESE 6 9 30.12 1020 10 16.0934 N/A
5:56 am 05:56 Cloudy 54 12 41 5 63 63 ESE 7 11 30.12 1020 10 16.0934 N/A
6:16 am 06:16 Cloudy 54 12 41 5 63 63 SE 8 13 30.12 1020 10 16.0934 N/A
6:36 am 06:36 Cloudy 54 12 43 6 67 67 SE 8 13 30.12 1020 10 16.0934 N/A
6:55 am 06:55 Cloudy 54 12 43 6 67 67 SE 7 11 30.12 1020 10 16.0934 N/A
7:16 am 07:16 Cloudy 54 12 45 7 72 72 Calm 30.12 1020 10 16.0934 N/A
7:36 am 07:36 Cloudy 54 12 45 7 72 72 SE 5 7 30.12 1020 10 16.0934 N/A
7:55 am 07:55 Cloudy 54 12 46 8 77 77 SSE 6 9 30.12 1020 10 16.0934 N/A
8:16 am 08:16 Cloudy 54 12 46 8 77 77 SSE 7 11 30.12 1020 10 16.0934 N/A
8:36 am 08:36 Cloudy 54 12 46 8 77 77 SSE 3 6 30.12 1020 10 16.0934 N/A
8:55 am 08:55 Cloudy 55 13 50 10 82 82 SSE 9 15 30.09 1019 10 16.0934 N/A
9:16 am 09:16 Cloudy 55 13 55 13 100 100 SSE 8 13 30.09 1019 10 16.0934 N/A
9:36 am 09:36 Cloudy 55 13 52 11 88 88 SSE 8 13 30.09 1019 10 16.0934 N/A
9:56 am 09:56 Cloudy 57 14 50 10 77 77 SSE 9 15 30.09 1019 10 16.0934 N/A
10:16 am 10:16 Cloudy 59 15 52 11 77 77 S 10 17 30.09 1019 10 16.0934 N/A
10:36 am 10:36 Cloudy 59 15 52 11 77 77 S 10 17 30.09 1019 10 16.0934 N/A
10:56 am 10:56 Cloudy 59 15 54 12 82 82 S 9 15 30.09 1019 10 16.0934 N/A
11:16 am 11:16 Cloudy 59 15 54 12 82 82 S 8 13 30.09 1019 10 16.0934 N/A
11:35 am 11:35 Cloudy 61 16 54 12 77 77 S 7 11 30.09 1019 10 16.0934 N/A
11:56 am 11:56 Cloudy 61 16 55 13 83 83 S 8 13 30.09 1019 10 16.0934 N/A
12:16 pm 12:16 Cloudy 61 16 55 13 83 83 S 6 9 30.12 1020 10 16.0934 N/A
12:35 pm 12:35 Cloudy 61 16 55 13 83 83 S 5 7 30.12 1020 10 16.0934 N/A
12:56 pm 12:56 Cloudy 63 17 55 13 77 77 SSW 5 7 30.09 1019 10 16.0934 N/A
1:16 pm 13:16 Cloudy 61 16 55 13 83 83 SW 7 11 30.09 1019 10 16.0934 N/A
1:35 pm 13:35 Cloudy 63 17 55 13 77 77 WSW 3 6 30.09 1019 10 16.0934 N/A
1:56 pm 13:56 Cloudy 63 17 54 12 73 73 Calm 30.09 1019 10 16.0934 N/A
2:16 pm 14:16 Cloudy 63 17 55 13 77 77 Calm 30.09 1019 10 16.0934 N/A
2:36 pm 14:36 Cloudy 63 17 54 12 73 73 Calm 30.09 1019 10 16.0934 N/A
2:56 pm 14:56 Cloudy 64 18 54 12 68 68 Calm 30.09 1019 10 16.0934 N/A
3:16 pm 15:16 Cloudy 63 17 54 12 73 73 Calm 30.09 1019 7 11.26538 N/A
3:36 pm 15:36 Cloudy 64 18 54 12 68 68 Calm 30.06 1018 7 11.26538 N/A
3:56 pm 15:56 Partly Cloudy 66 19 54 12 64 64 Calm 30.06 1018 7 11.26538 N/A
4:16 pm 16:16 Partly Cloudy 66 19 55 13 68 68 Calm 30.06 1018 7 11.26538 N/A
4:36 pm 16:36 Partly Cloudy 66 19 54 12 64 64 Calm 30.06 1018 7 11.26538 N/A
4:56 pm 16:56 Mostly Cloudy 68 20 54 12 60 60 SW 7 11 30.06 1018 10 16.0934 N/A
5:15 pm 17:15 Mostly Cloudy 66 19 54 12 64 64 SW 6 9 30.06 1018 10 16.0934 N/A
5:36 pm 17:36 Cloudy 66 19 54 12 64 64 SW 7 11 30.06 1018 10 16.0934 N/A
5:56 pm 17:56 Mostly Cloudy 68 20 54 12 60 60 W 6 9 30.06 1018 10 16.0934 N/A
6:15 pm 18:15 Mostly Cloudy 68 20 54 12 60 60 WSW 7 11 30.06 1018 10 16.0934 N/A
6:36 pm 18:36 Partly Cloudy 68 20 54 12 60 60 W 6 9 30.06 1018 10 16.0934 N/A
6:56 pm 18:56 Mostly Cloudy 68 20 54 12 60 60 W 7 11 30.06 1018 10 16.0934 N/A
7:15 pm 19:15 Mostly Cloudy 68 20 54 12 60 60 W 6 9 30.06 1018 10 16.0934 N/A
7:36 pm 19:36 Partly Cloudy 66 19 54 12 64 64 WNW 8 13 30.06 1018 10 16.0934 N/A
7:56 pm 19:56 Mostly Cloudy 64 18 54 12 68 68 WNW 6 9 30.06 1018 10 16.0934 N/A
8:15 pm 20:15 Mostly Cloudy 64 18 54 12 68 68 NW 8 13 30.06 1018 10 16.0934 N/A
8:36 pm 20:36 Cloudy 63 17 55 13 77 77 NNW 7 11 30.06 1018 10 16.0934 N/A
8:56 pm 20:56 Cloudy 63 17 57 14 83 83 N 7 11 30.06 1018 10 16.0934 N/A
9:15 pm 21:15 Cloudy 61 16 61 16 100 100 N 6 9 30.09 1019 10 16.0934 N/A
9:36 pm 21:36 Cloudy 61 16 N/A N/A NNW 5 7 30.09 1019 7 11.26538 N/A
9:55 pm 21:55 Mostly Cloudy 61 16 N/A N/A NNW 5 7 30.09 1019 7 11.26538 N/A
10:16 pm 22:16 Mostly Cloudy 61 16 N/A N/A NNW 5 7 30.09 1019 7 11.26538 N/A
10:36 pm 22:36 Mostly Cloudy 59 15 N/A N/A N 3 6 30.09 1019 7 11.26538 N/A
10:56 pm 22:56 Mostly Cloudy 59 15 N/A N/A Calm 30.09 1019 7 11.26538 N/A
11:16 pm 23:16 Mostly Cloudy 59 15 N/A N/A Calm 30.09 1019 7 11.26538 N/A
11:36 pm 23:36 Mostly Cloudy 59 15 N/A N/A Calm 30.09 1019 7 11.26538 N/A
11:56 pm 23:56 Partly Cloudy 57 14 N/A N/A Calm 30.12 1020 5 8.0467 N/A

Powered by AerisWeather